Regional Weather Roundup
Issued by NWS Albany, NY

Home | Current Version | Previous Version | Text Only | Print | Product List | Glossary On
Versions: 1 2 3 4 5 6 7 8 9 10 11 12 13 14 15 16 17 18 19 20 21 22 23 24 25 26 27 28 29 30 31 32 33 34 35 36 37 38 39 40 41 42 43 44 45 46 47 48 49 50
828
ASUS41 KALY 152210
RWRALY

NEW YORK STATE HOURLY WEATHER ROUNDUP
NATIONAL WEATHER SERVICE ALBANY NY
500 PM EST MON JAN 15 2018

NOTE: "FAIR" INDICATES FEW OR NO CLOUDS BELOW 12,000 FEET WITH NO
SIGNIFICANT WEATHER AND/OR NO OBSTRUCTIONS TO VISIBILITY.

NYZ032-033-038>043-046>054-057>066-NYZ062>081-082-084-152300-
EAST


CITY           SKY/WX    TMP DP  RH WIND       PRES   REMARKS
ALBANY         MOCLDY    19   4  51 N6        30.59S WCI  11
GLENS FALLS    FAIR      15   4  61 CALM      30.60S
POUGHKEEPSIE   CLOUDY    24  12  60 N7        30.54S WCI  16
NEWBURGH       PTCLDY    23  16  74 VRB5      30.53S WCI  17
MONTGOMERY     FAIR      22  13  68 NE7       30.52R WCI  13
WHITE PLAINS   MOCLDY    26  15  63 E6        30.51S WCI  19
ISLIP          FLURRIES  25  16  68 NE12      30.54F WCI  14
NEW YORK CITY  FAIR      28  17  63 NE16      30.53S WCI  16
CENTRAL PARK   FLURRIES  28  17  63 E9        30.54R WCI  19
$$

NYZ005>009-017-018-044>046-055-056-152300-
CENTRAL


CITY           SKY/WX    TMP DP  RH WIND       PRES   REMARKS
FULTON         CLOUDY    18   9  68 VRB3      30.47F
SYRACUSE       CLOUDY    15  10  80 E15       30.48F WCI   0
ROME           CLOUDY    18  10  71 SE9       30.53F WCI   7
ELMIRA         CLOUDY    20  13  74 E6        30.41F WCI  12
BINGHAMTON     CLOUDY    19  12  74 SE9       30.37S WCI   8
MONTICELLO     FAIR      19  13  77 E6        30.45S WCI  11
$$

NYZ026>034-041>043-087-152300-
NORTH


CITY           SKY/WX    TMP DP  RH WIND       PRES   REMARKS
WATERTOWN      CLOUDY    20   5  52 NE12      30.52F WCI   8
FORT DRUM      NOT AVBL
OGDENSBURG     FAIR       4  -2  79 NE9       30.60S WCI -11
MASSENA        FAIR       0  -5  79 NE12      30.66S WCI -17
SARANAC LAKE   FAIR       4   1  88 NE6       30.43F WCI  -7
PLATTSBURGH    FAIR      -2  -8  76 N5        30.67S WCI -12
$$

NYZ001>004-010>016-019>021-085-152300-
WEST


CITY           SKY/WX    TMP DP  RH WIND       PRES   REMARKS
NIAGARA FALLS  CLOUDY    22  11  62 SE7       30.37R WCI  13
BUFFALO        MOCLDY    20  14  77 E7        30.36S WCI  11
DUNKIRK        MIX PCPN  22  13  68 SE6       30.34S WCI  14
JAMESTOWN      LGT SNOW  17  13  84 S9        30.26S FOG     WCI   6
WELLSVILLE     CLOUDY    18   6  59 S8        30.29R WCI   8
ROCHESTER      MOCLDY    21  11  65 SE10      30.41F WCI  10
PENN YAN       CLOUDY    19   9  65 SE10      30.39F WCI   7
$$

             KEY
       WCI = WIND CHILL INDEX
       VSB = VISIBILITY
       HX  = HEAT INDEX
$$




USA.gov is the U.S. government's official web portal to all federal, state and local government web resources and services.